Location: Les Moreaux
(47.2278°N, 1.4966°E)
Time: 15:13:46
(UTC+00:00)

Cosmos 1697 Rocket - Pass Details

Date: 19 May 2025
Orbit: 830 x 844 km, 71.0° (Epoch: 18 June)

Event Time Altitude Azimuth Distance (km) Brightness Sun altitude
Rises 21:17:37 0° 331° (NNW) 3,406 7.7 -14.5°
Reaches altitude 10° 21:20:04 10° 330° (NNW) 2,469 6.5 -14.8°
Maximum altitude 21:25:43 73° 247° (WSW) 884 2.8 -15.3°
Enters shadow 21:29:25 22° 166° (SSE) 1,753 3.8 -15.7°
